| time (UTC) | temp F | wind direction | speed knots | gust knots | rain 1hr in | rain 24hr in | rain mn in | humidity % | barometer mb |
| 20260505093020 | 0 | 0.0 | 0.0 | 0.00 | 0.00 | 0.00 | 1005.4 | ||
| 20260505091506 | 55 | 0.0 | 0.0 | 0.00 | 0.00 | 0.00 | 68 | 1005.4 | |
| 20260505090003 | 55 | 0.0 | 0.0 | 0.00 | 0.00 | 0.00 | 67 | 1005.3 | |
| 20260505084501 | 56 | 0.0 | 0.0 | 0.00 | 0.00 | 0.00 | 67 | 1005.3 | |
| 20260505083001 | 56 | 0.0 | 0.0 | 0.00 | 0.00 | 0.00 | 66 | 1005.2 | |
| 20260505081603 | 56 | 0.0 | 0.0 | 0.00 | 0.00 | 0.00 | 66 | 1005.4 | |
| 20260505080058 | 56 | 0.0 | 0.0 | 0.00 | 0.00 | 0.00 | 65 | 1005.5 | |
| 20260505074558 | 56 | 0.0 | 0.0 | 0.00 | 0.00 | 0.00 | 65 | 1005.5 | |
| 20260505073058 | 56 | 0.0 | 0.0 | 0.00 | 0.00 | 0.00 | 64 | 1005.3 | |
| 20260505071556 | 56 | 0.0 | 0.0 | 0.00 | 0.00 | 0.00 | 63 | 1005.4 | |
| 20260505070054 | 56 | 0.0 | 0.0 | 0.00 | 0.00 | 0.00 | 62 | 1005.6 | |
| 20260505064554 | 56 | 0.0 | 0.0 | 0.00 | 0.00 | 0.00 | 63 | 1005.7 | |
| 20260505063052 | 56 | 0.0 | 0.0 | 0.00 | 0.00 | 0.00 | 62 | 1005.7 | |
| 20260505061553 | 56 | 0.0 | 0.0 | 0.00 | 0.00 | 0.00 | 62 | 1005.7 | |
| 20260505060050 | 56 | 0.0 | 0.0 | 0.00 | 0.00 | 0.00 | 62 | 1005.8 | |
| 20260505054550 | 56 | 0.0 | 0.0 | 0.00 | 0.00 | 0.00 | 61 | 1005.8 | |
| 20260505053052 | 56 | 0.0 | 0.0 | 0.00 | 0.00 | 0.00 | 62 | 1005.9 | |
| 20260505051548 | 56 | 0.0 | 0.0 | 0.00 | 0.00 | 0.00 | 62 | 1005.9 | |
| 20260505041544 | 56 | 0.0 | 0.0 | 0.00 | 0.00 | 0.00 | 61 | 1005.7 | |
| 20260505040041 | 56 | 0.0 | 0.0 | 0.00 | 0.00 | 0.00 | 60 | 1005.8 | |
| 20260505034541 | 56 | 0.0 | 0.0 | 0.00 | 0.00 | 0.00 | 60 | 1005.8 | |
| 20260505033102 | 56 | 0.0 | 0.0 | 0.00 | 0.00 | 0.00 | 59 | 1005.7 | |
| 20260505031542 | 57 | 0.0 | 0.0 | 0.00 | 0.00 | 0.00 | 59 | 1005.7 | |
| 20260505030038 | 57 | 0.0 | 0.0 | 0.00 | 0.00 | 0.00 | 58 | 1005.9 | |
| 20260505024537 | 57 | 0.0 | 0.0 | 0.00 | 0.00 | 0.00 | 58 | 1006.0 | |
| 20260505023047 | 57 | 0.0 | 0.0 | 0.00 | 0.00 | 0.00 | 58 | 1006.2 | |
| 20260505021537 | 57 | 0.0 | 0.0 | 0.00 | 0.00 | 0.00 | 57 | 1006.4 | |
| 20260505020039 | 58 | 0.0 | 0.0 | 0.00 | 0.00 | 0.00 | 56 | 1006.3 | |
| 20260505014536 | 58 | 0.0 | 0.0 | 0.00 | 0.00 | 0.00 | 54 | 1006.2 | |
| 20260505013035 | 59 | 0.0 | 0.0 | 0.00 | 0.00 | 0.00 | 53 | 1006.1 | |
| 20260505011535 | 59 | 0.0 | 0.0 | 0.00 | 0.00 | 0.00 | 53 | 1006.0 | |
| 20260505010037 | 60 | 0.0 | 0.0 | 0.00 | 0.00 | 0.00 | 53 | 1005.9 | |
| 20260505004543 | 60 | 0.0 | 0.0 | 0.00 | 0.00 | 0.00 | 51 | 1005.8 | |
| 20260505003035 | 61 | 0.0 | 0.0 | 0.00 | 0.00 | 0.00 | 51 | 1005.8 | |
| 20260505001533 | 61 | 0.0 | 0.0 | 0.00 | 0.00 | 0.00 | 49 | 1005.6 | |
| 20260505000034 | 63 | 0.0 | 0.0 | 0.00 | 0.00 | 0.00 | 48 | 1005.5 | |
| 20260504234541 | 64 | 0.0 | 0.0 | 0.00 | 0.00 | 0.00 | 46 | 1005.4 | |
| 20260504233034 | 65 | 0.0 | 0.0 | 0.00 | 0.00 | 0.00 | 44 | 1005.2 | |
| 20260504231541 | 66 | 0.0 | 0.0 | 0.00 | 0.00 | 0.00 | 41 | 1005.3 | |
| 20260504230029 | 68 | 0.0 | 0.0 | 0.00 | 0.00 | 0.00 | 40 | 1005.1 | |
| 20260504224529 | 68 | 0.0 | 0.0 | 0.00 | 0.00 | 0.00 | 40 | 1005.1 | |
| 20260504223028 | 69 | 0.0 | 0.0 | 0.00 | 0.00 | 0.00 | 39 | 1005.1 | |
| 20260504221527 | 69 | 0.0 | 0.0 | 0.00 | 0.00 | 0.00 | 38 | 1005.1 | |
| 20260504220026 | 69 | 0.0 | 0.0 | 0.00 | 0.00 | 0.00 | 39 | 1005.1 | |
| 20260504214533 | 68 | 0.0 | 0.0 | 0.00 | 0.00 | 0.00 | 39 | 1005.0 | |
| 20260504213026 | 68 | 0.0 | 0.0 | 0.00 | 0.00 | 0.00 | 38 | 1005.2 | |
| 20260504211521 | 68 | 0.0 | 0.0 | 0.00 | 0.00 | 0.00 | 39 | 1005.4 | |
| 20260504210019 | 68 | 0.0 | 0.0 | 0.00 | 0.00 | 0.00 | 39 | 1005.5 | |
| 20260504204537 | 68 | 0.0 | 0.0 | 0.00 | 0.00 | 0.00 | 37 | 1005.8 | |
| 20260504203015 | 68 | 0.0 | 0.0 | 0.00 | 0.00 | 0.00 | 36 | 1005.9 | |
| 20260504201513 | 68 | 0.0 | 0.0 | 0.00 | 0.00 | 0.00 | 39 | 1006.1 | |
| 20260504200014 | 68 | 0.0 | 0.0 | 0.00 | 0.00 | 0.00 | 40 | 1006.4 | |
| 20260504194512 | 68 | 0.0 | 0.0 | 0.00 | 0.00 | 0.00 | 36 | 1006.5 | |
| 20260504193017 | 68 | 0.0 | 0.0 | 0.00 | 0.00 | 0.00 | 37 | 1006.7 | |
| 20260504191508 | 68 | 0.0 | 0.0 | 0.00 | 0.00 | 0.00 | 38 | 1006.8 | |
| 20260504190010 | 68 | 0.0 | 0.0 | 0.00 | 0.00 | 0.00 | 38 | 1006.7 | |
| 20260504184504 | 68 | 0.0 | 0.0 | 0.00 | 0.00 | 0.00 | 40 | 1007.0 | |
| 20260504183002 | 67 | 0.0 | 0.0 | 0.00 | 0.00 | 0.00 | 39 | 1007.1 | |
| 20260504181559 | 66 | 0.0 | 0.0 | 0.00 | 0.00 | 0.00 | 41 | 1007.2 | |
| 20260504180058 | 66 | 0.0 | 0.0 | 0.00 | 0.00 | 0.00 | 41 | 1007.3 | |
| 20260504174556 | 65 | 0.0 | 0.0 | 0.00 | 0.00 | 0.00 | 40 | 1007.5 | |
| 20260504173055 | 66 | 0.0 | 0.0 | 0.00 | 0.00 | 0.00 | 40 | 1007.7 | |
| 20260504171555 | 66 | 0.0 | 0.0 | 0.00 | 0.00 | 0.00 | 40 | 1007.7 |